Location: Newark
(47.5783°N, 6.7622°E)
Time: 02:02:27
(UTC+00:00)

SR - All Passes

Search period start: 23 February 2020 00:00
Search period end: 04 March 2020 00:00
Orbit: 575 x 880 km, 66.7° (Epoch: 22 February)

Date Brightness Start Highest point End Pass type
(mag) Time Alt. Az. Time Alt. Az. Time Alt. Az.
23 Feb - 00:50:38 10° WNW 00:54:03 18° WSW 00:57:16 10° SSW night (unlit)
23 Feb - 13:40:06 10° SSE 13:45:01 28° ESE 13:49:54 10° NE daylight
23 Feb - 15:20:56 10° SW 15:26:49 62° NW 15:32:35 10° NNE daylight
23 Feb - 17:05:55 10° WNW 17:10:03 19° NNW 17:14:06 10° NNE daylight
23 Feb - 18:53:30 10° NNW 18:54:31 10° N 18:55:30 10° N visible
23 Feb - 20:36:13 10° N 20:39:10 14° NNE 20:42:01 10° NE visible
23 Feb - 22:17:40 10° NNW 22:22:49 42° NE 22:27:30 10° ESE visible
24 Feb - 00:00:05 10° NW 00:04:48 34° WSW 00:09:07 10° S night (unlit)
24 Feb - 12:52:29 10° SE 12:55:46 15° ESE 12:59:02 10° ENE daylight
24 Feb - 14:31:08 10° SSW 14:37:04 80° ESE 14:42:55 10° NE daylight
24 Feb - 16:14:51 10° W 16:19:49 27° NW 16:24:40 10° NNE daylight
24 Feb - 18:01:51 10° NW 18:03:55 12° NNW 18:05:57 10° N visible
24 Feb - 19:46:48 10° N 19:48:39 12° NNE 19:50:29 10° NNE visible
24 Feb - 21:28:09 10° NNW 21:32:45 27° NE 21:37:01 10° E visible
24 Feb - 23:10:05 10° NW 23:15:21 66° WSW 23:20:06 10° SSE visible
25 Feb - 13:41:51 10° S 13:47:29 47° ESE 13:53:03 10° NE daylight
25 Feb - 15:24:10 10° WSW 15:29:44 41° NW 15:35:10 10° NNE daylight
25 Feb - 17:10:13 10° NW 17:13:24 15° NNW 17:16:31 10° N daylight
25 Feb - 18:57:17 10° N 18:58:05 10° N 18:58:51 10° NNE visible
25 Feb - 20:38:42 10° NNW 20:42:31 19° NNE 20:46:06 10° ENE visible
25 Feb - 22:20:20 10° NNW 22:25:41 69° NE 22:30:31 10° SE visible
26 Feb - 00:03:34 10° WNW 00:07:06 19° WSW 00:10:26 10° SSW night (unlit)
26 Feb - 12:53:15 10° SSE 12:58:05 27° ESE 13:02:52 10° NE daylight
26 Feb - 14:33:56 10° SW 14:39:50 65° NW 14:45:36 10° NNE daylight
26 Feb - 16:18:49 10° WNW 16:23:01 20° NNW 16:27:07 10° NNE daylight
26 Feb - 18:06:29 10° NNW 18:07:27 10° N 18:08:24 10° N visible
26 Feb - 19:49:18 10° N 19:52:08 14° NNE 19:54:50 10° NE visible
26 Feb - 21:30:44 10° NNW 21:35:48 40° NE 21:40:26 10° ESE visible
26 Feb - 23:13:05 10° NW 23:17:50 36° WSW 23:22:11 10° S visible
27 Feb - 12:05:48 10° SE 12:08:50 14° ESE 12:11:52 10° ENE daylight
27 Feb - 13:44:11 10° SSW 13:50:06 77° ESE 13:55:55 10° NE daylight
27 Feb - 15:27:47 10° W 15:32:48 28° NW 15:37:41 10° NNE daylight
27 Feb - 17:14:44 10° NW 17:16:52 12° NNW 17:18:56 10° N daylight
27 Feb - 18:59:55 10° N 19:01:36 11° NNE 19:03:14 10° NNE visible
27 Feb - 20:41:13 10° NNW 20:45:43 26° NE 20:49:54 10° E visible
27 Feb - 22:23:06 10° NW 22:28:21 69° WSW 22:33:07 10° SSE visible
28 Feb - 12:54:58 10° S 13:00:32 44° ESE 13:06:02 10° NE daylight
28 Feb - 14:37:09 10° WSW 14:42:45 42° NW 14:48:11 10° NNE daylight
28 Feb - 16:23:06 10° WNW 16:26:21 15° NNW 16:29:33 10° NNE daylight
28 Feb - 18:10:30 10° N 18:11:00 10° N 18:11:30 10° N visible
28 Feb - 19:51:47 10° NNW 19:55:28 18° NNE 19:58:57 10° ENE visible
28 Feb - 21:33:22 10° NNW 21:38:40 66° NE 21:43:28 10° SE visible
28 Feb - 23:16:30 10° WNW 23:20:08 20° WSW 23:23:35 10° SSW visible
29 Feb - 12:06:27 10° SSE 12:11:09 25° ESE 12:15:48 10° NE daylight
29 Feb - 13:46:57 10° SW 13:52:52 68° NW 13:58:37 10° NNE daylight
29 Feb - 15:31:43 10° WNW 15:36:00 20° NNW 15:40:09 10° NNE daylight
29 Feb - 17:19:27 10° NNW 17:20:23 10° N 17:21:18 10° N daylight
29 Feb - 19:02:24 10° N 19:05:03 13° NNE 19:07:38 10° NE visible
29 Feb - 20:43:47 10° NNW 20:48:46 38° NE 20:53:21 10° ESE visible
29 Feb - 22:26:05 10° NW 22:30:52 38° WSW 22:35:14 10° S visible
01 Mar - 11:19:10 10° SE 11:21:55 14° ESE 11:24:40 10° ENE daylight
01 Mar - 12:57:14 10° SSW 13:03:09 73° ESE 13:08:55 10° NE daylight
01 Mar - 14:40:43 10° W 14:45:47 29° NW 14:50:42 10° NNE daylight
01 Mar - 16:27:38 10° NW 16:29:48 12° NNW 16:31:56 10° N daylight
01 Mar - 18:13:03 10° N 18:14:32 11° N 18:15:59 10° NNE visible
01 Mar - 19:54:17 10° NNW 19:58:41 25° NE 20:02:47 10° E visible
01 Mar - 21:36:08 10° NW 21:41:22 73° WSW 21:46:07 10° SSE visible
01 Mar - 23:21:49 10° W 23:22:19 10° W 23:22:48 10° WSW night (unlit)
02 Mar - 12:08:05 10° S 12:13:35 42° ESE 12:19:01 10° NE daylight
02 Mar - 13:50:07 10° WSW 13:55:45 44° NW 14:01:13 10° NNE daylight
02 Mar - 15:35:59 10° WNW 15:39:19 15° NNW 15:42:34 10° NNE daylight
02 Mar - 19:04:52 10° NNW 19:08:25 17° NNE 19:11:47 10° ENE visible
02 Mar - 20:46:25 10° NNW 20:51:40 62° NE 20:56:25 10° SE visible
02 Mar - 22:29:26 10° WNW 22:33:12 21° WSW 22:36:43 10° SSW visible
03 Mar - 11:19:37 10° SSE 11:24:13 24° ESE 11:28:44 10° ENE daylight
03 Mar - 12:59:57 10° SW 13:05:53 71° NW 13:11:38 10° NNE daylight
03 Mar - 14:44:38 10° W 14:48:57 21° NNW 14:53:10 10° NNE daylight
03 Mar - 16:32:23 10° NNW 16:33:19 10° N 16:34:14 10° N daylight
03 Mar - 18:15:29 10° N 18:18:00 13° NNE 18:20:25 10° NE visible
03 Mar - 19:56:50 10° NNW 20:01:45 36° NE 20:06:15 10° ESE visible
03 Mar - 21:39:05 10° NW 21:43:54 40° WSW 21:48:17 10° S visible
